GPRO Georgia

Formula 1 online manager


    Season 27, Race 9: Barcelona GP (Spain)

    Share
    avatar
    mrfantom
    Admin

    Posts : 211
    Join date : 01.09.11
    Age : 27
    Location : Tbilisi

    Season 27, Race 9: Barcelona GP (Spain)

    Post by mrfantom on Sun Oct 02, 2011 4:31 am


    ადგილმდებარეობა: ესპანეთი
    თარიღი: 30 სექტემბერი, 2011

    ტრასის პარამეტრები:
    სარბოლო დისტანცია: 307.3 კმ
    წრეების რაოდენობა: 65
    წრის სიგრძე: 4.728 კმ
    საშუალო სიჩქარე: 217.02 კმ/სთ
    ჩატარებული რბოლები: 11
    მოსახვევების რაოდენობა: 16
    პიტზე შესვლა/გამოსვლის დრო: 21 წ.

    სიმძლავრე: 11
    მართვადობა: 13
    აჩქარება: 8

    დამწოლი ძალა: საშუალო
    გასწრება: რთული
    დაკიდების სიხისტე: რბილი
    საწვავის ხარჯი: მაღალი
    საბურავების ცვეთა: საშუალო

    პრაქტიკა/კვალიფიკაცია 1

    ტემპ: 45°C
    ტენიანობა: 28%
    კვალიფიკაცია 2/რბოლის სტარტი

    ტემპ: 31°C
    ტენიანობა: 20%
    სტარტი - 0ს30წთ
    ტემპ: 39°-43°
    ტენიანობა: 21%-29%
    წვიმის ალბათობა: 0%
    0ს30წთ - 1ს
    ტემპ: 37°-40°
    ტენიანობა: 18%-26%
    წვიმის ალბათობა: 0%
    1ს - 1ს30წთ
    ტემპ: 38°-42°
    ტენიანობა: 19%-27%
    წვიმის ალბათობა: 0%
    1ს30წთ - 2ს
    ტემპ: 39°-42°
    ტენიანობა: 20%-30%
    წვიმის ალბათობა: 0%


    Last edited by mrfantom on Sun Oct 02, 2011 4:34 am; edited 2 times in total
    avatar
    mrfantom
    Admin

    Posts : 211
    Join date : 01.09.11
    Age : 27
    Location : Tbilisi

    Amater 17

    Post by mrfantom on Sun Oct 02, 2011 4:32 am

    Lap information
    Lap Lap time Pos Tyres Weather Temp Hum Events
    0 - 23 Hard Partially Cloudy 41° 20% -
    1 1:42.537 26 Hard Partially Cloudy 41° 20% -
    2 1:28.406 26 Hard Partially Cloudy 41° 20% -
    3 1:27.911 25 Hard Partially Cloudy 41° 20% -
    4 1:27.793 25 Hard Partially Cloudy 41° 20% -
    5 1:27.715 25 Hard Partially Cloudy 41° 20% -
    6 1:27.667 25 Hard Partially Cloudy 41° 20% -
    7 1:27.582 25 Hard Partially Cloudy 41° 21% -
    8 1:27.591 25 Hard Partially Cloudy 41° 21% -
    9 1:27.494 25 Hard Partially Cloudy 40° 21% -
    10 1:27.503 25 Hard Partially Cloudy 39° 21% -
    11 1:27.503 25 Hard Partially Cloudy 39° 21% -
    12 1:27.456 25 Hard Partially Cloudy 39° 21% -
    13 1:27.315 25 Hard Partially Cloudy 39° 21% -
    14 1:27.251 25 Hard Sunny 40° 21% -
    15 1:27.286 24 Hard Sunny 41° 21% -
    16 1:27.118 24 Hard Sunny 41° 21% -
    17 1:27.142 25 Hard Sunny 41° 21% -
    18 1:27.101 25 Hard Sunny 41° 21% -
    19 1:27.026 25 Hard Sunny 42° 21% -
    20 1:26.950 25 Hard Sunny 43° 21% -
    21 1:26.922 24 Hard Sunny 43° 21% -
    22 1:26.807 24 Hard Sunny 43° 21% -
    23 1:26.748 21 Hard Sunny 43° 20% -
    24 1:26.687 16 Hard Sunny 43° 20% -
    25 1:26.713 16 Hard Sunny 43° 19% -
    26 1:26.580 16 Hard Sunny 43° 18% -
    27 1:26.607 16 Hard Sunny 43° 18% -
    28 1:26.471 16 Hard Sunny 42° 18% -
    29 1:26.531 16 Hard Sunny 42° 18% -
    30 1:26.396 16 Hard Sunny 41° 18% -
    31 1:26.382 16 Hard Sunny 40° 18% -
    32 1:26.460 16 Hard Sunny 39° 18% -
    33 1:26.309 15 Hard Sunny 38° 18% -
    34 1:36.819 18 Hard Sunny 37° 18% Pit
    35 2:11.560 24 Hard Sunny 37° 18% -
    36 1:28.555 24 Hard Sunny 37° 18% -
    37 1:28.259 23 Hard Sunny 37° 18% -
    38 1:27.998 23 Hard Sunny 37° 18% -
    39 1:27.917 23 Hard Sunny 37° 18% -
    40 1:27.867 23 Hard Sunny 37° 18% -
    41 1:27.895 23 Hard Sunny 37° 18% -
    42 1:27.788 23 Hard Sunny 38° 18% -
    43 1:27.669 23 Hard Sunny 38° 18% -
    44 1:27.702 23 Hard Sunny 39° 19% -
    45 1:30.051 23 Hard Sunny 40° 19% Car problem
    46 1:30.094 23 Hard Sunny 41° 19% Car problem
    47 1:30.010 23 Hard Sunny 41° 19% Car problem
    48 1:30.043 23 Hard Sunny 41° 19% Car problem
    49 1:29.997 23 Hard Sunny 41° 19% Car problem
    50 1:30.024 22 Hard Sunny 41° 19% Car problem
    51 1:30.008 22 Hard Sunny 41° 19% Car problem
    52 1:29.945 22 Hard Sunny 41° 19% Car problem
    53 1:29.924 23 Hard Sunny 41° 19% Car problem
    54 1:30.043 23 Hard Sunny 41° 19% Car problem
    55 1:29.907 23 Hard Sunny 41° 19% Car problem
    56 1:29.953 23 Hard Sunny 41° 19% Car problem
    57 1:29.963 23 Hard Sunny 41° 19% Car problem
    58 1:29.889 23 Hard Sunny 41° 19% Car problem
    59 1:29.969 23 Hard Sunny 41° 19% Car problem
    60 1:29.900 23 Hard Sunny 41° 19% Car problem
    61 1:29.970 23 Hard Sunny 41° 19% Car problem
    62 1:29.973 23 Hard Sunny 41° 19% Car problem
    63 1:29.948 24 Hard Sunny 41° 19% Car problem
    64 1:29.958 24 Hard Sunny 41° 20% Car problem
    65 1:29.870 24 Hard Sunny 41° 20% Car problem


    Risks used
    Overtake Defend Clear Malfunct
    0 0 0 0

    Setup used
    FWing RWing Eng Bra Gear Susp
    625 575 780 600 562 282

    Start fuel: 115 liters

    Pit Pitstop reason Tyres condition
    Fuel left Refilled to Pit time
    Stop 1
    (Lap 34) No more fuel was left 19% 1% 120 liters 32.085s

    Technical problems
    Lap 45 The engine was losing power

    Tyres condition after finish: 27%

    Fuel left in the car after finish: 16 liters
    avatar
    Matador

    Posts : 216
    Join date : 02.09.11
    Age : 35

    Rookie, OHO

    Post by Matador on Sun Oct 02, 2011 5:29 am

    Lap Lap time Pos Tyres Weather Temp Hum Events
    0 - 8 Hard Partially Cloudy 41° 20% -
    1 1:36.865 14 Hard Partially Cloudy 41° 20% -
    2 1:29.192 14 Hard Partially Cloudy 41° 20% -
    3 1:29.342 15 Hard Partially Cloudy 41° 20% -
    4 1:28.523 15 Hard Partially Cloudy 41° 20% -
    5 1:29.068 14 Hard Partially Cloudy 41° 20% -
    6 1:28.895 15 Hard Partially Cloudy 41° 20% -
    7 1:28.249 15 Hard Partially Cloudy 41° 21% -
    8 1:28.316 15 Hard Partially Cloudy 41° 21% -
    9 1:28.799 15 Hard Partially Cloudy 40° 21% -
    10 1:28.538 15 Hard Partially Cloudy 39° 21% -
    11 1:28.808 15 Hard Partially Cloudy 39° 21% -
    12 1:28.748 15 Hard Partially Cloudy 39° 21% -
    13 1:28.123 15 Hard Partially Cloudy 39° 21% -
    14 1:28.354 14 Hard Sunny 40° 21% -
    15 1:27.963 12 Hard Sunny 41° 21% -
    16 1:40.553 17 Hard Sunny 41° 21% Car problem, Pit
    17 2:24.399 26 Hard Sunny 41° 21% -
    18 1:34.535 24 Hard Sunny 41° 21% Driver mistake
    19 1:28.072 24 Hard Sunny 42° 21% -
    20 1:27.590 23 Hard Sunny 43° 21% -
    21 1:27.903 23 Hard Sunny 43° 21% -
    22 1:27.837 22 Hard Sunny 43° 21% -
    23 1:27.695 22 Hard Sunny 43° 20% -
    24 1:27.466 21 Hard Sunny 43° 20% -
    25 1:27.209 21 Hard Sunny 43° 19% -
    26 1:27.382 21 Hard Sunny 43° 18% -
    27 1:26.936 21 Hard Sunny 43° 18% -
    28 1:26.685 20 Hard Sunny 42° 18% -
    29 1:28.230 16 Hard Sunny 42° 18% -
    30 1:26.644 16 Hard Sunny 41° 18% -
    31 1:26.863 16 Hard Sunny 40° 18% -
    32 1:26.534 16 Hard Sunny 39° 18% -
    33 1:36.983 18 Hard Sunny 38° 18% Pit
    34 2:18.941 22 Hard Sunny 37° 18% -
    35 1:30.209 22 Hard Sunny 37° 18% -
    36 1:29.249 22 Hard Sunny 37° 18% -
    37 1:29.830 21 Hard Sunny 37° 18% -
    38 1:28.921 21 Hard Sunny 37° 18% -
    39 1:29.078 21 Hard Sunny 37° 18% -
    40 1:29.140 21 Hard Sunny 37° 18% -
    41 1:29.155 21 Hard Sunny 37° 18% -
    42 1:28.972 21 Hard Sunny 38° 18% -
    43 1:28.791 21 Hard Sunny 38° 18% -
    44 1:28.346 20 Hard Sunny 39° 19% -
    45 1:28.507 20 Hard Sunny 40° 19% -
    46 1:28.959 19 Hard Sunny 41° 19% -
    47 1:28.762 19 Hard Sunny 41° 19% -
    48 1:28.619 19 Hard Sunny 41° 19% -
    49 1:29.442 19 Hard Sunny 41° 19% -
    50 1:28.766 19 Hard Sunny 41° 19% -
    51 1:28.816 19 Hard Sunny 41° 19% -
    52 1:29.660 18 Hard Sunny 41° 19% -
    53 1:28.062 16 Hard Sunny 41° 19% -
    54 1:28.575 16 Hard Sunny 41° 19% -
    55 1:28.553 15 Hard Sunny 41° 19% -
    56 1:27.328 15 Hard Sunny 41° 19% -
    57 1:27.293 15 Hard Sunny 41° 19% -
    58 1:27.748 12 Hard Sunny 41° 19% -
    59 1:27.120 12 Hard Sunny 41° 19% -
    60 1:27.152 12 Hard Sunny 41° 19% -
    61 1:27.604 11 Hard Sunny 41° 19% -
    62 1:27.329 11 Hard Sunny 41° 19% -
    63 1:27.304 11 Hard Sunny 41° 19% -
    64 1:27.412 11 Hard Sunny 41° 20% -
    65 1:28.045 12 Hard Sunny 41° 20% -

    Risks used
    Starting risk
    Overtake where possible
    Overtake Defend Clear Malfunct
    0 0 0 0

    Positions
    Start Finish
    8 12

    Start fuel: 125 liters

    Pit Pitstop reason Tyres condition Fuel left Refilled to Pit time
    Stop 1:
    (Lap 16) The car had a technical problem 59% 36% No refill 44.851s
    Stop 2:
    (Lap 33) No more fuel was left 56% 1% 135 liters 38.227s

    Technical problems
    Lap 16
    The rear wing was broken and had to be replaced

    Tyres condition after finish: 19%

    Fuel left in the car after finish: 15 liters

    CGSaba

    Posts : 23
    Join date : 20.09.11

    Re: Season 27, Race 9: Barcelona GP (Spain)

    Post by CGSaba on Sun Oct 02, 2011 3:53 pm

    Lap Lap time Pos Tyres Weather Temp Hum Events
    0 - 20 Hard Partially Cloudy 41° 20% -
    1 1:41.463 20 Hard Partially Cloudy 41° 20% -
    2 1:29.311 20 Hard Partially Cloudy 41° 20% -
    3 1:29.418 20 Hard Partially Cloudy 41° 20% -
    4 1:29.845 20 Hard Partially Cloudy 41° 20% -
    5 1:28.835 20 Hard Partially Cloudy 41° 20% -
    6 1:30.046 21 Hard Partially Cloudy 41° 20% -
    7 1:29.221 21 Hard Partially Cloudy 41° 21% -
    8 1:28.942 21 Hard Partially Cloudy 41° 21% -
    9 1:29.058 20 Hard Partially Cloudy 40° 21% -
    10 1:28.335 19 Hard Partially Cloudy 39° 21% -
    11 1:28.401 19 Hard Partially Cloudy 39° 21% -
    12 1:28.159 18 Hard Partially Cloudy 39° 21% -
    13 1:28.074 18 Hard Partially Cloudy 39° 21% -
    14 1:28.040 18 Hard Sunny 40° 21% -
    15 1:27.959 17 Hard Sunny 41° 21% -
    16 1:27.856 16 Hard Sunny 41° 21% -
    17 1:27.877 15 Hard Sunny 41° 21% -
    18 1:28.121 13 Hard Sunny 41° 21% -
    19 1:27.751 12 Hard Sunny 42° 21% -
    20 1:27.562 11 Hard Sunny 43° 21% -
    21 1:27.386 10 Hard Sunny 43° 21% -
    22 1:27.291 8 Hard Sunny 43° 21% -
    23 1:27.192 7 Hard Sunny 43° 20% -
    24 1:27.317 4 Hard Sunny 43° 20% -
    25 1:27.058 3 Hard Sunny 43° 19% -
    26 1:27.087 2 Hard Sunny 43° 18% -
    27 1:27.100 2 Hard Sunny 43° 18% -
    28 1:26.861 2 Hard Sunny 42° 18% -
    29 1:26.748 2 Hard Sunny 42° 18% -
    30 1:26.783 2 Hard Sunny 41° 18% -
    31 1:27.297 2 Hard Sunny 40° 18% -
    32 1:27.460 2 Hard Sunny 39° 18% -
    33 1:27.977 2 Hard Sunny 38° 18% -
    34 1:39.043 2 Hard Sunny 37° 18% Pit
    35 2:14.800 9 Hard Sunny 37° 18% -
    36 1:29.787 10 Hard Sunny 37° 18% -
    37 1:29.367 9 Hard Sunny 37° 18% -
    38 1:29.072 9 Hard Sunny 37° 18% -
    39 1:28.974 9 Hard Sunny 37° 18% -
    40 1:28.980 9 Hard Sunny 37° 18% -
    41 1:28.864 9 Hard Sunny 37° 18% -
    42 1:28.701 8 Hard Sunny 38° 18% -
    43 1:28.661 8 Hard Sunny 38° 18% -
    44 1:28.702 8 Hard Sunny 39° 19% -
    45 1:28.556 7 Hard Sunny 40° 19% -
    46 1:28.456 7 Hard Sunny 41° 19% -
    47 1:28.253 6 Hard Sunny 41° 19% -
    48 1:28.314 4 Hard Sunny 41° 19% -
    49 1:28.170 4 Hard Sunny 41° 19% -
    50 1:28.187 4 Hard Sunny 41° 19% -
    51 1:27.990 3 Hard Sunny 41° 19% -
    52 1:27.911 3 Hard Sunny 41° 19% -
    53 1:34.233 4 Hard Sunny 41° 19% Driver mistake
    54 1:27.752 4 Hard Sunny 41° 19% -
    55 1:27.679 3 Hard Sunny 41° 19% -
    56 1:27.702 3 Hard Sunny 41° 19% -
    57 1:27.502 3 Hard Sunny 41° 19% -
    58 1:27.377 3 Hard Sunny 41° 19% -
    59 1:30.435 3 Hard Sunny 41° 19% Car problem
    60 1:30.403 3 Hard Sunny 41° 19% Car problem
    61 1:30.328 3 Hard Sunny 41° 19% Car problem
    62 1:30.275 3 Hard Sunny 41° 19% Car problem
    63 1:30.198 3 Hard Sunny 41° 19% Car problem
    64 1:30.149 4 Hard Sunny 41° 20% Car problem
    65 1:30.335 4 Hard Sunny 41° 20% Car problem


    Risks used
    Overtake Defend Clear Malfunct
    10 15 20 0

    Setup used
    FWing RWing Eng Bra Gear Susp
    680 680 647 697 614 281

    Start fuel: 122

    Pit Pitstop reason Tyres condition
    Fuel left Refilled to Pit time
    Stop 1
    (Lap 34) No more fuel was left 8% 1% 132 liters 34.006s

    Technical problems
    Lap 59 The rear wing broke

    Tyres condition after finish: 19%

    Fuel left in the car after finish: 22 liters

    avatar
    Matador

    Posts : 216
    Join date : 02.09.11
    Age : 35

    Rookie, Matador

    Post by Matador on Mon Oct 03, 2011 3:37 pm

    Lap informationLap Lap time Pos Tyres Weather Temp Hum Events
    0 - 3 Medium Partially Cloudy 41° 20% -
    1 1:32.650 5 Medium Partially Cloudy 41° 20% -
    2 1:28.752 5 Medium Partially Cloudy 41° 20% -
    3 1:27.509 5 Medium Partially Cloudy 41° 20% -
    4 1:27.261 5 Medium Partially Cloudy 41° 20% -
    5 1:27.183 5 Medium Partially Cloudy 41° 20% -
    6 1:27.158 5 Medium Partially Cloudy 41° 20% -
    7 1:27.394 5 Medium Partially Cloudy 41° 21% -
    8 1:27.814 5 Medium Partially Cloudy 41° 21% -
    9 1:26.870 5 Medium Partially Cloudy 40° 21% -
    10 1:27.514 6 Medium Partially Cloudy 39° 21% -
    11 1:26.783 6 Medium Partially Cloudy 39° 21% -
    12 1:26.720 6 Medium Partially Cloudy 39° 21% -
    13 1:26.602 5 Medium Partially Cloudy 39° 21% -
    14 1:27.258 5 Medium Sunny 40° 21% -
    15 1:26.940 5 Medium Sunny 41° 21% -
    16 1:26.434 5 Medium Sunny 41° 21% -
    17 1:26.413 5 Medium Sunny 41° 21% -
    18 1:26.306 5 Medium Sunny 41° 21% -
    19 1:26.821 4 Medium Sunny 42° 21% -
    20 1:26.164 4 Medium Sunny 43° 21% -
    21 1:26.113 4 Medium Sunny 43° 21% -
    22 1:26.902 4 Medium Sunny 43° 21% -
    23 1:36.521 4 Medium Sunny 43° 20% Pit
    24 2:04.506 7 Medium Sunny 43° 20% -
    25 1:27.773 5 Medium Sunny 43° 19% -
    26 1:27.799 4 Medium Sunny 43° 18% -
    27 1:27.147 4 Medium Sunny 43° 18% -
    28 1:27.116 4 Medium Sunny 42° 18% -
    29 1:27.050 4 Medium Sunny 42° 18% -
    30 1:27.028 4 Medium Sunny 41° 18% -
    31 1:26.894 4 Medium Sunny 40° 18% -
    32 1:27.619 4 Medium Sunny 39° 18% -
    33 1:27.602 4 Medium Sunny 38° 18% -
    34 1:26.689 4 Medium Sunny 37° 18% -
    35 1:26.710 4 Medium Sunny 37° 18% -
    36 1:27.452 4 Medium Sunny 37° 18% -
    37 1:32.818 5 Medium Sunny 37° 18% Driver mistake
    38 1:26.461 5 Medium Sunny 37° 18% -
    39 1:26.360 5 Medium Sunny 37° 18% -
    40 1:26.304 5 Medium Sunny 37° 18% -
    41 1:26.214 5 Medium Sunny 37° 18% -
    42 1:26.167 5 Medium Sunny 38° 18% -
    43 1:26.088 5 Medium Sunny 38° 18% -
    44 1:25.985 4 Medium Sunny 39° 19% -
    45 1:36.531 4 Medium Sunny 40° 19% Pit
    46 2:04.796 6 Medium Sunny 41° 19% -
    47 1:27.837 6 Medium Sunny 41° 19% -
    48 1:27.381 6 Medium Sunny 41° 19% -
    49 1:27.152 5 Medium Sunny 41° 19% -
    50 1:27.107 5 Medium Sunny 41° 19% -
    51 1:27.002 5 Medium Sunny 41° 19% -
    52 1:27.019 5 Medium Sunny 41° 19% -
    53 1:26.883 5 Medium Sunny 41° 19% -
    54 1:27.493 5 Medium Sunny 41° 19% -
    55 1:26.795 5 Medium Sunny 41° 19% -
    56 1:27.173 5 Medium Sunny 41° 19% -
    57 1:27.029 5 Medium Sunny 41° 19% -
    58 1:26.880 5 Medium Sunny 41° 19% -
    59 1:26.906 5 Medium Sunny 41° 19% -
    60 1:27.424 5 Medium Sunny 41° 19% -
    61 1:26.247 5 Medium Sunny 41° 19% -
    62 1:27.118 5 Medium Sunny 41° 19% -
    63 1:26.018 5 Medium Sunny 41° 19% -
    64 1:26.924 5 Medium Sunny 41° 20% -
    65 1:25.848 5 Medium Sunny 41° 20% -

    Risks used
    Overtake Defend Clear Malfunct
    10 10 10 10

    Setup used
    FWing RWing Eng Bra Gear Susp
    730 630 630 650 610 290



    Start fuel: 88 litersPit Pitstop reason Tyres condition
    Fuel left Refilled to Pit time
    Stop 1
    (Lap 23) No more fuel was left 19% 1% 84 liters 25.910s
    Stop 2
    (Lap 45) No more fuel was left 23% 1% 88 liters 26.046s



    Tyres condition after finish: 29%

    Fuel left in the car after finish: 14 liters
    avatar
    macbook

    Posts : 90
    Join date : 02.09.11

    Re: Season 27, Race 9: Barcelona GP (Spain)

    Post by macbook on Tue Oct 04, 2011 8:26 pm

    Last Race: Barcelona GP (Spain) - Sep 30th, 2011

    Lap information
    Lap Lap time Pos Tyres Weather Temp Hum Events
    0 - 19 Hard Partially Cloudy 41° 20% -
    1 1:36.007 18 Hard Partially Cloudy 41° 20% -
    2 1:26.205 18 Hard Partially Cloudy 41° 20% -
    3 1:26.070 18 Hard Partially Cloudy 41° 20% -
    4 1:25.798 18 Hard Partially Cloudy 41° 20% -
    5 1:25.680 18 Hard Partially Cloudy 41° 20% -
    6 1:26.025 18 Hard Partially Cloudy 41° 20% -
    7 1:26.010 18 Hard Partially Cloudy 41° 21% -
    8 1:25.708 18 Hard Partially Cloudy 41° 21% -
    9 1:24.945 18 Hard Partially Cloudy 40° 21% -
    10 1:25.527 18 Hard Partially Cloudy 39° 21% -
    11 1:25.660 18 Hard Partially Cloudy 39° 21% -
    12 1:25.433 18 Hard Partially Cloudy 39° 21% -
    13 1:25.895 18 Hard Partially Cloudy 39° 21% -
    14 1:25.130 18 Hard Sunny 40° 21% -
    15 1:25.442 18 Hard Sunny 41° 21% -
    16 1:25.453 18 Hard Sunny 41° 21% -
    17 1:24.871 15 Hard Sunny 41° 21% -
    18 1:25.306 15 Hard Sunny 41° 21% -
    19 1:25.462 15 Hard Sunny 42° 21% -
    20 1:25.157 15 Hard Sunny 43° 21% -
    21 1:32.043 20 Hard Sunny 43° 21% Driver mistake
    22 1:24.030 18 Hard Sunny 43° 21% -
    23 1:23.973 16 Hard Sunny 43° 20% -
    24 1:24.425 14 Hard Sunny 43° 20% -
    25 1:24.408 12 Hard Sunny 43° 19% -
    26 1:24.834 12 Hard Sunny 43° 18% -
    27 1:24.458 12 Hard Sunny 43° 18% -
    28 1:24.296 12 Hard Sunny 42° 18% -
    29 1:23.745 12 Hard Sunny 42° 18% -
    30 1:25.287 12 Hard Sunny 41° 18% -
    31 1:24.508 12 Hard Sunny 40° 18% -
    32 1:25.337 11 Hard Sunny 39° 18% -
    33 1:24.174 8 Hard Sunny 38° 18% -
    34 1:23.699 8 Hard Sunny 37° 18% -
    35 1:24.041 7 Hard Sunny 37° 18% -
    36 1:24.286 7 Hard Sunny 37° 18% -
    37 1:35.178 12 Hard Sunny 37° 18% Pit
    38 2:07.751 18 Hard Sunny 37° 18% -
    39 1:25.270 18 Hard Sunny 37° 18% -
    40 1:24.932 18 Hard Sunny 37° 18% -
    41 1:24.817 18 Hard Sunny 37° 18% -
    42 1:24.786 18 Hard Sunny 38° 18% -
    43 1:24.732 17 Hard Sunny 38° 18% -
    44 1:25.129 16 Hard Sunny 39° 19% -
    45 1:24.562 16 Hard Sunny 40° 19% -
    46 1:24.960 15 Hard Sunny 41° 19% -
    47 1:24.423 14 Hard Sunny 41° 19% -
    48 1:24.364 14 Hard Sunny 41° 19% -
    49 1:24.331 14 Hard Sunny 41° 19% -
    50 1:24.281 14 Hard Sunny 41° 19% -
    51 1:24.173 14 Hard Sunny 41° 19% -
    52 1:24.585 13 Hard Sunny 41° 19% -
    53 1:24.042 13 Hard Sunny 41° 19% -
    54 1:24.034 13 Hard Sunny 41° 19% -
    55 1:23.971 13 Hard Sunny 41° 19% -
    56 1:23.909 13 Hard Sunny 41° 19% -
    57 1:23.859 13 Hard Sunny 41° 19% -
    58 1:23.823 13 Hard Sunny 41° 19% -
    59 1:23.713 13 Hard Sunny 41° 19% -
    60 1:23.701 13 Hard Sunny 41° 19% -
    61 1:23.575 13 Hard Sunny 41° 19% -
    62 1:23.506 13 Hard Sunny 41° 19% -
    63 1:23.521 13 Hard Sunny 41° 19% -
    64 1:23.895 12 Hard Sunny 41° 20% -
    65 1:23.365 10 Hard Sunny 41° 20% -

    Download the race analysis as Excel sheet

    Previous race: Barcelona GP (Spain)

    Power:
    Handling:
    Acceleration:
    Best qualifying lap
    Jari Aareskoski: 1:18.245s (Season 14)
    Track record
    Heidi Aareskoski: 1:18.426s (Season 14)
    Weather forecast (for the previous race)
    Practice / Qualify 1 Qualify 2 / Race start

    Temp: 45°C
    Humidity: 28%
    Temp: 41°C
    Humidity: 20%
    Race forecast
    Start - 0h30m 0h30m - 1h
    Temp: 39°-43°
    Humidity: 21%-29%
    Rain probability: 0% Temp: 37°-40°
    Humidity: 18%-26%
    Rain probability: 0%
    1h - 1h30m 1h30m - 2h
    Temp: 38°-42°
    Humidity: 19%-27%
    Rain probability: 0% Temp: 39°-42°
    Humidity: 20%-30%
    Rain probability: 0%
    Race settings and strategy
    Risks used
    Overtake Defend Clear Malfunct
    0 30 70 70

    Setup used
    FWing RWing Eng Bra Gear Susp
    725 625 925 611 403 403

    Start fuel: 115 liters

    Pit Pitstop reason Tyres condition
    Fuel left Refilled to Pit time
    Stop 1
    (Lap 37) No more fuel was left 12% 1% 110 liters 31.622s

    Tyres condition after finish: 34%

    Fuel left in the car after finish: 25 liters
    avatar
    macbook

    Posts : 90
    Join date : 02.09.11

    Re: Season 27, Race 9: Barcelona GP (Spain)

    Post by macbook on Tue Oct 04, 2011 8:29 pm

    Track information for Barcelona (Spain)
    Race information
    Lap times
    Qualification 1 Qualification 2
    1:27.750s 1:29.937s

    Setups used
    Session FWing RWing Eng Bra Gear Susp Tyres
    Q1 750 650 712 663 513 300 Medium
    Q2 750 650 712 663 513 300 Medium
    Race 750 650 712 663 513 300 -

    Risks used
    Starting risk
    Overtake where possible
    Overtake Defend Clear Malfunct
    0 5 25 0

    Positions
    Start Finish
    1 4

    Overall car character
    Power Handling Acceleration
    36 30 33

    Sessions weather
    Practice / Qualify 1 Qualify 2 / Race start
    Partially cloudy
    Temp: 45°C
    Humidity: 28% Partially cloudy
    Temp: 41°C
    Humidity: 20%
    Race forecast
    Start - 0h30m 0h30m - 1h
    Temp: 39° - 43°
    Humidity: 21% - 29%
    Rain probability: 0% Temp: 37° - 40°
    Humidity: 18% - 26%
    Rain probability: 0%
    1h - 1h30m 1h30m - 2h
    Temp: 38° - 42°
    Humidity: 19% - 27%
    Rain probability: 0% Temp: 39° - 42°
    Humidity: 20% - 30%
    Rain probability: 0%


    Start fuel: 85 liters

    Pit Pitstop reason Tyres condition Fuel left Refilled to Pit time
    Stop 1:
    (Lap 23) No more fuel was left 16% 1% 85 liters 31.652s
    Stop 2:
    (Lap 46) No more fuel was left 17% 1% 90 liters 30.044s

    Tyres condition after finish: 30%

    Fuel left in the car after finish: 21 liters

    Show financial analysis as:
    Table
    Graph

    Financial analysis of the last race
    Earnings
    Driver race position (4): $7.600.000
    Driver qualifying position (1): $500.000
    Sponsor money: $1.000.000
    Costs
    Driver points bonus: $-10.000
    Driver salary: $-2.200.000
    Staff salary: $-215.000
    Facility costs: $-200.000
    Tyres contract (Pipirelli): $-250.000

    Total: $6.225.000

    Current balance: $8.455.773
    Car wear & lap information
    Car parts level
    Cha Eng FWing RWing Underb Sidep Cool Gear Bra Susp Elec
    2 3 2 2 2 2 2 3 3 2 2
    Car parts wear (at the start)
    21% 20% 37% 36% 57% 32% 20% 0% 30% 59% 13%
    Car parts wear (at the finish)
    41% 60% 70% 75% 82% 50% 37% 25% 66% 90% 28%
    Lap Lap time Pos Tyres Weather Temp Hum Events
    0 - 1 Medium Partially Cloudy 41° 20% -
    1 1:32.388 4 Medium Partially Cloudy 41° 20% -
    2 1:28.420 4 Medium Partially Cloudy 41° 20% -
    3 1:27.474 4 Medium Partially Cloudy 41° 20% -
    4 1:27.823 4 Medium Partially Cloudy 41° 20% -
    5 1:27.326 4 Medium Partially Cloudy 41° 20% -
    6 1:27.169 4 Medium Partially Cloudy 41° 20% -
    7 1:26.898 4 Medium Partially Cloudy 41° 21% -
    8 1:27.935 4 Medium Partially Cloudy 41° 21% -
    9 1:26.815 4 Medium Partially Cloudy 40° 21% -
    10 1:26.770 4 Medium Partially Cloudy 39° 21% -
    11 1:27.260 4 Medium Partially Cloudy 39° 21% -
    12 1:26.606 4 Medium Partially Cloudy 39° 21% -
    13 1:26.590 4 Medium Partially Cloudy 39° 21% -
    14 1:26.533 4 Medium Sunny 40° 21% -
    15 1:27.650 5 Medium Sunny 41° 21% -
    16 1:26.328 5 Medium Sunny 41° 21% -
    17 1:26.993 4 Medium Sunny 41° 21% -
    18 1:27.679 4 Medium Sunny 41° 21% -
    19 1:26.656 3 Medium Sunny 42° 21% -
    20 1:26.134 2 Medium Sunny 43° 21% -
    21 1:26.051 2 Medium Sunny 43° 21% -
    22 1:25.936 2 Medium Sunny 43° 21% -
    23 1:36.968 2 Medium Sunny 43° 20% Pit
    24 2:10.241 7 Medium Sunny 43° 20% -
    25 1:27.733 7 Medium Sunny 43° 19% -
    26 1:27.272 7 Medium Sunny 43° 18% -
    27 1:27.096 5 Medium Sunny 43° 18% -
    28 1:27.080 5 Medium Sunny 42° 18% -
    29 1:27.009 5 Medium Sunny 42° 18% -
    30 1:26.925 5 Medium Sunny 41° 18% -
    31 1:26.894 5 Medium Sunny 40° 18% -
    32 1:26.834 4 Medium Sunny 39° 18% -
    33 1:26.823 4 Medium Sunny 38° 18% -
    34 1:27.123 3 Medium Sunny 37° 18% -
    35 1:27.268 3 Medium Sunny 37° 18% -
    36 1:26.580 3 Medium Sunny 37° 18% -
    37 1:27.292 3 Medium Sunny 37° 18% -
    38 1:26.475 3 Medium Sunny 37° 18% -
    39 1:26.764 3 Medium Sunny 37° 18% -
    40 1:26.875 3 Medium Sunny 37° 18% -
    41 1:26.441 3 Medium Sunny 37° 18% -
    42 1:26.795 3 Medium Sunny 38° 18% -
    43 1:26.152 3 Medium Sunny 38° 18% -
    44 1:26.557 3 Medium Sunny 39° 19% -
    45 1:26.439 3 Medium Sunny 40° 19% -
    46 1:36.743 3 Medium Sunny 41° 19% Pit
    47 2:08.787 5 Medium Sunny 41° 19% -
    48 1:27.782 5 Medium Sunny 41° 19% -
    49 1:27.435 5 Medium Sunny 41° 19% -
    50 1:27.189 5 Medium Sunny 41° 19% -
    51 1:27.158 5 Medium Sunny 41° 19% -
    52 1:27.086 4 Medium Sunny 41° 19% -
    53 1:27.024 4 Medium Sunny 41° 19% -
    54 1:26.896 4 Medium Sunny 41° 19% -
    55 1:26.878 4 Medium Sunny 41° 19% -
    56 1:27.101 4 Medium Sunny 41° 19% -
    57 1:27.483 4 Medium Sunny 41° 19% -
    58 1:27.150 4 Medium Sunny 41° 19% -
    59 1:27.448 4 Medium Sunny 41° 19% -
    60 1:27.204 4 Medium Sunny 41° 19% -
    61 1:27.409 4 Medium Sunny 41° 19% -
    62 1:26.566 4 Medium Sunny 41° 19% -
    63 1:27.133 4 Medium Sunny 41° 19% -
    64 1:26.960 4 Medium Sunny 41° 20% -
    65 1:26.506 4 Medium Sunny 41° 20% -

    Download race analysis as Excel sheet

    Sponsored content

    Re: Season 27, Race 9: Barcelona GP (Spain)

    Post by Sponsored content


      Current date/time is Fri Apr 28, 2017 11:27 am